Time,TemperatureF,DewpointF,PressureIn,WindDirection,WindDirectionDegrees,WindSpeedMPH,WindSpeedGustMPH,Humidity,HourlyPrecipIn,Conditions,Clouds,dailyrainin,SoftwareType,DateUTC
2013-01-31 08:08:00,36.1,18.8,28.64,SW,225,0.3,0.0,49,0.25,,,0.25,WSDL version 420,2013-01-31 13:08:00,
2013-01-31 08:10:00,36.1,18.6,28.64,North,11,1.0,1.3,48,0.25,,,0.25,WSDL version 420,2013-01-31 13:10:00,
2013-01-31 08:12:00,36.1,18.5,28.64,NW,324,0.4,2.7,48,0.25,,,0.25,WSDL version 420,2013-01-31 13:12:00,
2013-01-31 08:14:00,36.1,18.2,28.64,West,281,1.0,2.7,47,0.25,,,0.25,WSDL version 420,2013-01-31 13:14:00,
2013-01-31 08:20:00,36.3,17.9,28.64,West,260,2.0,3.8,47,0.25,,,0.25,WSDL version 420,2013-01-31 13:20:00,
2013-01-31 08:26:00,36.4,18.4,28.67,SE,135,0.0,3.8,49,0.25,,,0.25,WSDL version 420,2013-01-31 13:26:00,
2013-01-31 08:32:00,36.5,19.2,28.67,SW,225,1.1,4.3,49,0.25,,,0.25,WSDL version 420,2013-01-31 13:32:00,
2013-01-31 08:34:00,36.6,19.2,28.67,SSW,200,0.0,4.3,49,0.25,,,0.25,WSDL version 420,2013-01-31 13:34:00,
2013-01-31 08:36:00,36.6,19.3,28.67,East,90,0.0,4.3,49,0.25,,,0.25,WSDL version 420,2013-01-31 13:36:00,
2013-01-31 08:38:00,36.7,19.3,28.67,East,99,0.0,4.3,49,0.25,,,0.25,WSDL version 420,2013-01-31 13:38:00,
2013-01-31 08:44:00,36.8,19.9,28.67,WSW,248,0.0,0.0,50,0.25,,,0.25,WSDL version 420,2013-01-31 13:44:00,
2013-01-31 08:48:00,36.9,20.1,28.67,West,259,0.4,0.0,50,0.25,,,0.25,WSDL version 420,2013-01-31 13:48:00,
2013-01-31 08:50:00,37.0,20.1,28.67,South,169,0.3,2.2,50,0.25,,,0.25,WSDL version 420,2013-01-31 13:50:00,
2013-01-31 08:54:00,37.1,20.2,28.67,SSW,194,0.7,2.2,50,0.25,,,0.25,WSDL version 420,2013-01-31 13:54:00,
2013-01-31 08:56:00,37.2,20.3,28.67,SSW,210,0.0,2.2,50,0.25,,,0.25,WSDL version 420,2013-01-31 13:56:00,
2013-01-31 09:02:00,37.4,20.8,28.67,SSW,203,1.3,3.1,51,0.25,,,0.25,WSDL version 420,2013-01-31 14:02:00,
2013-01-31 09:08:00,37.6,20.6,28.67,South,189,0.8,4.7,50,0.00,,,0.25,WSDL version 420,2013-01-31 14:08:00,
2013-01-31 09:14:00,37.8,20.3,28.67,South,180,0.0,4.7,49,0.00,,,0.25,WSDL version 420,2013-01-31 14:14:00,
2013-01-31 09:18:00,38.0,20.6,28.67,South,180,0.0,2.2,49,0.00,,,0.25,WSDL version 420,2013-01-31 14:18:00,
2013-01-31 09:20:00,38.1,20.6,28.67,South,191,2.3,2.7,49,0.00,,,0.25,WSDL version 420,2013-01-31 14:20:00,
2013-01-31 09:22:00,38.1,20.7,28.67,South,185,2.4,3.1,49,0.00,,,0.25,WSDL version 420,2013-01-31 14:22:00,
2013-01-31 09:26:00,38.3,20.2,28.67,SW,233,0.4,3.1,47,0.00,,,0.25,WSDL version 420,2013-01-31 14:26:00,
2013-01-31 09:32:00,38.6,20.3,28.67,SW,231,0.7,2.7,47,0.00,,,0.25,WSDL version 420,2013-01-31 14:32:00,
2013-01-31 09:34:00,38.8,20.5,28.67,SSE,150,2.1,2.9,47,0.00,,,0.25,WSDL version 420,2013-01-31 14:34:00,
2013-01-31 09:40:00,39.0,20.7,28.67,SSW,195,1.9,3.8,48,0.00,,,0.25,WSDL version 420,2013-01-31 14:40:00,
2013-01-31 09:42:00,39.1,20.8,28.67,SW,218,0.5,3.8,47,0.00,,,0.25,WSDL version 420,2013-01-31 14:42:00,
2013-01-31 09:48:00,39.5,20.7,28.67,WSW,248,0.0,3.4,46,0.00,,,0.25,WSDL version 420,2013-01-31 14:48:00,
2013-01-31 09:50:00,39.6,20.6,28.67,WSW,248,0.4,1.6,46,0.00,,,0.25,WSDL version 420,2013-01-31 14:50:00,
2013-01-31 09:54:00,39.9,20.4,28.67,SSW,194,2.0,3.8,45,0.00,,,0.25,WSDL version 420,2013-01-31 14:54:00,
2013-01-31 09:56:00,40.0,20.2,28.70,West,270,2.2,3.8,44,0.00,,,0.25,WSDL version 420,2013-01-31 14:56:00,
2013-01-31 10:00:00,40.2,20.0,28.70,SW,233,1.0,3.8,44,0.00,,,0.25,WSDL version 420,2013-01-31 15:00:00,
2013-01-31 10:02:00,40.3,20.2,28.70,SSW,203,1.1,3.1,45,0.00,,,0.25,WSDL version 420,2013-01-31 15:02:00,
2013-01-31 10:06:00,40.5,20.7,28.70,North,0,0.0,2.5,45,0.00,,,0.25,WSDL version 420,2013-01-31 15:06:00,
2013-01-31 10:08:00,40.6,20.7,28.70,ESE,113,0.0,2.5,45,0.00,,,0.25,WSDL version 420,2013-01-31 15:08:00,
2013-01-31 10:14:00,40.8,20.3,28.70,North,0,0.0,2.5,42,0.00,,,0.25,WSDL version 420,2013-01-31 15:14:00,
2013-01-31 10:16:00,41.0,20.1,28.70,SW,225,1.5,2.5,42,0.00,,,0.25,WSDL version 420,2013-01-31 15:16:00,
2013-01-31 10:20:00,41.0,19.5,28.70,SW,236,0.7,2.5,42,0.00,,,0.25,WSDL version 420,2013-01-31 15:20:00,
2013-01-31 10:26:00,41.2,19.5,28.70,NE,53,0.0,1.6,42,0.00,,,0.25,WSDL version 420,2013-01-31 15:26:00,
2013-01-31 10:28:00,41.3,19.8,28.70,SSE,158,0.0,1.6,42,0.00,,,0.25,WSDL version 420,2013-01-31 15:28:00,
2013-01-31 10:32:00,41.4,19.1,28.70,NNE,18,3.4,6.0,39,0.00,,,0.25,WSDL version 420,2013-01-31 15:32:00,
2013-01-31 10:36:00,41.2,18.5,28.70,NE,45,1.6,6.0,40,0.00,,,0.25,WSDL version 420,2013-01-31 15:36:00,
2013-01-31 10:40:00,41.4,18.5,28.70,North,-999,-999.0,-999.0,39,0.00,,,0.25,WSDL version 420,2013-01-31 15:40:00,
2013-01-31 10:42:00,41.5,18.3,28.70,West,270,2.1,2.5,39,0.00,,,0.25,WSDL version 420,2013-01-31 15:42:00,
2013-01-31 10:46:00,41.8,18.0,28.70,North,9,2.6,5.6,37,0.00,,,0.25,WSDL version 420,2013-01-31 15:46:00,
2013-01-31 10:48:00,41.9,18.2,28.70,South,180,2.2,5.6,39,0.00,,,0.25,WSDL version 420,2013-01-31 15:48:00,
2013-01-31 10:52:00,42.2,18.9,28.70,WNW,293,1.5,5.6,39,0.00,,,0.25,WSDL version 420,2013-01-31 15:52:00,
2013-01-31 10:58:00,42.4,17.9,28.70,North,360,2.0,3.4,37,0.00,,,0.25,WSDL version 420,2013-01-31 15:58:00,
2013-01-31 11:00:00,42.4,17.8,28.70,NNE,23,5.0,7.4,37,0.00,,,0.25,WSDL version 420,2013-01-31 16:00:00,
2013-01-31 11:04:00,42.4,17.5,28.70,North,-999,-999.0,-999.0,33,0.00,,,0.25,WSDL version 420,2013-01-31 16:04:00,
2013-01-31 11:06:00,42.5,16.4,28.70,NW,315,4.9,7.4,33,0.00,,,0.25,WSDL version 420,2013-01-31 16:06:00,
2013-01-31 11:10:00,42.6,15.9,28.70,NE,45,2.0,6.5,33,0.00,,,0.25,WSDL version 420,2013-01-31 16:10:00,
2013-01-31 11:12:00,42.8,16.6,28.70,North,360,1.3,6.5,35,0.00,,,0.25,WSDL version 420,2013-01-31 16:12:00,
2013-01-31 11:16:00,43.1,18.0,28.70,WSW,248,0.0,2.5,37,0.00,,,0.25,WSDL version 420,2013-01-31 16:16:00,
2013-01-31 11:18:00,43.3,17.5,28.70,North,360,2.5,5.4,34,0.00,,,0.25,WSDL version 420,2013-01-31 16:18:00,
2013-01-31 11:24:00,43.5,16.4,28.70,West,276,3.2,5.4,32,0.00,,,0.25,WSDL version 420,2013-01-31 16:24:00,
2013-01-31 11:30:00,43.6,15.8,28.70,North,353,3.7,5.6,31,0.00,,,0.25,WSDL version 420,2013-01-31 16:30:00,
2013-01-31 11:32:00,43.6,15.3,28.70,WNW,287,2.3,5.6,31,0.00,,,0.25,WSDL version 420,2013-01-31 16:32:00,
2013-01-31 11:34:00,43.6,15.1,28.70,North,9,2.2,5.6,32,0.00,,,0.25,WSDL version 420,2013-01-31 16:34:00,
2013-01-31 11:38:00,44.0,16.4,28.70,SE,129,3.0,7.4,33,0.00,,,0.25,WSDL version 420,2013-01-31 16:38:00,
2013-01-31 11:42:00,44.2,16.4,28.70,WNW,285,3.0,7.4,31,0.00,,,0.25,WSDL version 420,2013-01-31 16:42:00,
2013-01-31 11:44:00,44.2,15.6,28.70,SSW,212,3.0,7.4,31,0.00,,,0.25,WSDL version 420,2013-01-31 16:44:00,
2013-01-31 11:48:00,44.4,15.7,28.70,NNW,342,2.6,3.8,31,0.00,,,0.25,WSDL version 420,2013-01-31 16:48:00,
2013-01-31 11:54:00,44.6,15.1,28.70,West,276,2.9,7.6,30,0.00,,,0.25,WSDL version 420,2013-01-31 16:54:00,
2013-01-31 11:58:00,44.7,15.2,28.70,SW,236,3.9,7.6,30,0.00,,,0.25,WSDL version 420,2013-01-31 16:58:00,
2013-01-31 12:00:00,44.8,15.3,28.70,NNE,23,3.4,5.4,30,0.00,,,0.25,WSDL version 420,2013-01-31 17:00:00,
2013-01-31 12:02:00,44.9,15.3,28.70,NW,308,2.6,5.4,30,0.00,,,0.25,WSDL version 420,2013-01-31 17:02:00,
2013-01-31 12:06:00,45.1,15.2,28.70,NW,315,4.9,8.7,29,0.00,,,0.25,WSDL version 420,2013-01-31 17:06:00,
2013-01-31 12:08:00,45.0,14.8,28.70,WNW,293,5.1,8.7,29,0.00,,,0.25,WSDL version 420,2013-01-31 17:08:00,
2013-01-31 12:14:00,45.4,15.8,28.70,South,169,3.0,8.7,31,0.00,,,0.25,WSDL version 420,2013-01-31 17:14:00,
2013-01-31 12:16:00,45.7,16.3,28.70,SE,124,2.6,4.0,31,0.00,,,0.25,WSDL version 420,2013-01-31 17:16:00,
2013-01-31 12:20:00,46.3,17.3,28.70,NE,45,2.0,3.1,31,0.00,,,0.25,WSDL version 420,2013-01-31 17:20:00,
2013-01-31 12:24:00,46.5,17.2,28.70,NW,323,2.9,3.6,30,0.00,,,0.25,WSDL version 420,2013-01-31 17:24:00,
2013-01-31 12:30:00,46.3,15.8,28.70,North,360,4.9,5.6,29,0.00,,,0.25,WSDL version 420,2013-01-31 17:30:00,
2013-01-31 12:32:00,46.2,15.6,28.70,WNW,297,3.4,5.6,29,0.00,,,0.25,WSDL version 420,2013-01-31 17:32:00,
2013-01-31 12:34:00,46.3,15.7,28.70,NW,315,2.9,5.6,29,0.00,,,0.25,WSDL version 420,2013-01-31 17:34:00,
2013-01-31 12:36:00,46.5,15.9,28.70,WNW,287,2.0,5.6,29,0.00,,,0.25,WSDL version 420,2013-01-31 17:36:00,
2013-01-31 12:42:00,47.0,16.4,28.70,NNW,338,1.3,3.4,29,0.00,,,0.25,WSDL version 420,2013-01-31 17:42:00,
2013-01-31 12:48:00,46.9,15.8,28.70,NNE,17,5.0,7.2,28,0.00,,,0.25,WSDL version 420,2013-01-31 17:48:00,
2013-01-31 12:50:00,46.8,15.4,28.70,NW,308,3.7,7.2,28,0.00,,,0.25,WSDL version 420,2013-01-31 17:50:00,
2013-01-31 12:54:00,47.2,16.2,28.70,NNW,345,2.5,7.2,29,0.00,,,0.25,WSDL version 420,2013-01-31 17:54:00,
2013-01-31 12:56:00,47.5,16.7,28.70,NNW,330,1.6,7.2,29,0.00,,,0.25,WSDL version 420,2013-01-31 17:56:00,
2013-01-31 13:02:00,48.2,16.9,28.70,NW,304,1.1,3.8,28,0.00,,,0.25,WSDL version 420,2013-01-31 18:02:00,
2013-01-31 13:04:00,48.3,16.7,28.70,WNW,284,1.7,2.9,28,0.00,,,0.25,WSDL version 420,2013-01-31 18:04:00,
2013-01-31 13:10:00,48.6,16.9,28.70,WNW,293,2.7,3.4,28,0.00,,,0.25,WSDL version 420,2013-01-31 18:10:00,
2013-01-31 13:16:00,48.8,17.2,28.70,SE,146,1.8,4.9,28,0.00,,,0.25,WSDL version 420,2013-01-31 18:16:00,
2013-01-31 13:22:00,49.1,17.4,28.70,West,270,2.8,4.7,28,0.00,,,0.25,WSDL version 420,2013-01-31 18:22:00,
2013-01-31 13:24:00,49.2,17.5,28.70,South,188,1.3,4.7,28,0.00,,,0.25,WSDL version 420,2013-01-31 18:24:00,
2013-01-31 13:26:00,49.2,17.5,28.70,North,360,2.9,4.7,28,0.00,,,0.25,WSDL version 420,2013-01-31 18:26:00,
2013-01-31 13:32:00,49.2,17.5,28.70,WNW,293,1.6,2.7,28,0.00,,,0.25,WSDL version 420,2013-01-31 18:32:00,
2013-01-31 13:36:00,49.5,17.7,28.70,SW,218,2.0,2.9,28,0.00,,,0.25,WSDL version 420,2013-01-31 18:36:00,
2013-01-31 13:38:00,49.3,17.2,28.70,NW,315,3.0,3.1,27,0.00,,,0.25,WSDL version 420,2013-01-31 18:38:00,
2013-01-31 13:40:00,49.3,17.0,28.70,ESE,113,3.1,3.1,27,0.00,,,0.25,WSDL version 420,2013-01-31 18:40:00,
2013-01-31 13:46:00,49.1,16.7,28.70,North,11,1.6,5.4,28,0.00,,,0.25,WSDL version 420,2013-01-31 18:46:00,
2013-01-31 13:52:00,49.6,17.6,28.70,NE,45,3.0,4.0,28,0.00,,,0.25,WSDL version 420,2013-01-31 18:52:00,
2013-01-31 13:58:00,49.8,17.9,28.70,North,-999,-999.0,-999.0,27,0.00,,,0.25,WSDL version 420,2013-01-31 18:58:00,
2013-01-31 14:00:00,49.7,17.4,28.70,NNE,23,2.8,4.0,27,0.00,,,0.25,WSDL version 420,2013-01-31 19:00:00,
2013-01-31 14:02:00,49.7,17.1,28.70,North,360,2.7,4.9,27,0.00,,,0.25,WSDL version 420,2013-01-31 19:02:00,
2013-01-31 14:04:00,49.7,17.1,28.70,South,191,2.5,6.3,27,0.00,,,0.25,WSDL version 420,2013-01-31 19:04:00,
2013-01-31 14:06:00,49.8,17.2,28.70,NE,45,4.7,6.3,27,0.00,,,0.25,WSDL version 420,2013-01-31 19:06:00,
2013-01-31 14:08:00,49.7,17.1,28.70,NNW,338,3.6,6.3,27,0.00,,,0.25,WSDL version 420,2013-01-31 19:08:00,
2013-01-31 14:12:00,49.7,17.1,28.70,SW,225,1.6,6.3,27,0.00,,,0.25,WSDL version 420,2013-01-31 19:12:00,
2013-01-31 14:14:00,49.8,17.4,28.70,NNW,338,2.9,7.6,27,0.00,,,0.25,WSDL version 420,2013-01-31 19:14:00,
2013-01-31 14:18:00,49.3,16.6,28.70,North,360,7.6,10.1,27,0.00,,,0.25,WSDL version 420,2013-01-31 19:18:00,
2013-01-31 14:22:00,48.6,16.1,28.70,NNW,338,5.6,10.1,27,0.00,,,0.25,WSDL version 420,2013-01-31 19:22:00,
2013-01-31 14:24:00,48.5,16.1,28.70,NNE,15,6.3,10.1,27,0.00,,,0.25,WSDL version 420,2013-01-31 19:24:00,
2013-01-31 14:28:00,48.4,15.9,28.70,WSW,240,3.2,8.5,27,0.00,,,0.25,WSDL version 420,2013-01-31 19:28:00,
2013-01-31 14:34:00,48.5,16.1,28.70,SSW,203,3.6,3.8,27,0.00,,,0.25,WSDL version 420,2013-01-31 19:34:00,
2013-01-31 14:36:00,48.6,16.2,28.70,WSW,248,2.5,3.8,27,0.00,,,0.25,WSDL version 420,2013-01-31 19:36:00,
2013-01-31 14:40:00,48.5,16.0,28.73,NNW,338,3.0,4.9,27,0.00,,,0.25,WSDL version 420,2013-01-31 19:40:00,
2013-01-31 14:42:00,48.3,15.9,28.73,North,360,5.4,6.3,27,0.00,,,0.25,WSDL version 420,2013-01-31 19:42:00,
2013-01-31 14:46:00,48.0,15.6,28.73,North,360,6.9,11.0,27,0.00,,,0.25,WSDL version 420,2013-01-31 19:46:00,
2013-01-31 14:48:00,47.8,15.4,28.73,North,353,4.8,11.0,27,0.00,,,0.25,WSDL version 420,2013-01-31 19:48:00,
2013-01-31 14:52:00,47.5,15.2,28.73,North,-999,-999.0,-999.0,27,0.00,,,0.25,WSDL version 420,2013-01-31 19:52:00,
2013-01-31 14:58:00,47.8,15.5,28.73,South,180,2.5,5.4,27,0.00,,,0.25,WSDL version 420,2013-01-31 19:58:00,
2013-01-31 15:00:00,47.9,15.6,28.73,NNE,15,3.3,4.3,27,0.00,,,0.25,WSDL version 420,2013-01-31 20:00:00,
2013-01-31 15:02:00,48.0,15.6,28.73,SW,236,3.2,4.3,27,0.00,,,0.25,WSDL version 420,2013-01-31 20:02:00,
2013-01-31 15:04:00,48.0,15.6,28.73,West,281,2.9,4.3,27,0.00,,,0.25,WSDL version 420,2013-01-31 20:04:00,
2013-01-31 15:06:00,47.9,15.6,28.73,North,-999,-999.0,-999.0,27,0.00,,,0.25,WSDL version 420,2013-01-31 20:06:00,
2013-01-31 15:08:00,47.9,15.5,28.73,SW,225,3.4,3.6,27,0.00,,,0.25,WSDL version 420,2013-01-31 20:08:00,
2013-01-31 15:14:00,47.9,15.6,28.73,SW,225,2.9,6.0,27,0.00,,,0.25,WSDL version 420,2013-01-31 20:14:00,
2013-01-31 15:18:00,47.8,15.5,28.73,West,278,3.1,6.0,27,0.00,,,0.25,WSDL version 420,2013-01-31 20:18:00,
2013-01-31 15:20:00,47.8,15.5,28.73,NNW,330,2.7,4.5,27,0.00,,,0.25,WSDL version 420,2013-01-31 20:20:00,
2013-01-31 15:22:00,47.8,15.4,28.73,North,349,3.5,6.0,27,0.00,,,0.25,WSDL version 420,2013-01-31 20:22:00,
2013-01-31 15:26:00,47.5,15.1,28.76,North,0,0.0,9.8,27,0.00,,,0.25,WSDL version 420,2013-01-31 20:26:00,
2013-01-31 15:28:00,47.3,15.0,28.76,SW,236,2.0,9.8,27,0.00,,,0.25,WSDL version 420,2013-01-31 20:28:00,
2013-01-31 15:32:00,47.4,15.1,28.76,South,180,3.1,9.8,27,0.00,,,0.25,WSDL version 420,2013-01-31 20:32:00,
2013-01-31 15:34:00,47.4,15.1,28.76,SW,236,3.4,4.9,27,0.00,,,0.25,WSDL version 420,2013-01-31 20:34:00,
2013-01-31 15:38:00,47.4,15.1,28.76,South,180,3.2,4.9,27,0.00,,,0.25,WSDL version 420,2013-01-31 20:38:00,
2013-01-31 15:40:00,47.5,15.1,28.79,North,0,0.0,4.9,27,0.00,,,0.25,WSDL version 420,2013-01-31 20:40:00,
2013-01-31 15:46:00,47.4,15.1,28.79,West,263,4.0,8.5,27,0.00,,,0.25,WSDL version 420,2013-01-31 20:46:00,
2013-01-31 15:50:00,47.3,15.0,28.79,NNE,23,4.0,8.5,27,0.00,,,0.25,WSDL version 420,2013-01-31 20:50:00,
2013-01-31 15:52:00,47.2,14.9,28.79,North,360,5.8,8.5,27,0.00,,,0.25,WSDL version 420,2013-01-31 20:52:00,
2013-01-31 15:56:00,47.2,14.9,28.79,SSW,203,3.8,6.3,27,0.00,,,0.25,WSDL version 420,2013-01-31 20:56:00,
2013-01-31 15:58:00,47.3,15.0,28.79,NE,45,4.3,6.3,27,0.00,,,0.25,WSDL version 420,2013-01-31 20:58:00,
2013-01-31 16:00:00,47.3,15.0,28.79,NNE,15,3.5,6.3,27,0.00,,,0.25,WSDL version 420,2013-01-31 21:00:00,
2013-01-31 16:04:00,47.3,15.0,28.79,NNW,338,2.0,6.3,27,0.00,,,0.25,WSDL version 420,2013-01-31 21:04:00,
2013-01-31 16:08:00,47.4,15.1,28.79,NW,315,2.5,3.1,27,0.00,,,0.25,WSDL version 420,2013-01-31 21:08:00,
2013-01-31 16:10:00,47.4,15.1,28.76,NE,45,2.2,2.9,27,0.00,,,0.25,WSDL version 420,2013-01-31 21:10:00,
2013-01-31 16:12:00,47.5,15.2,28.76,South,180,2.0,2.9,27,0.00,,,0.25,WSDL version 420,2013-01-31 21:12:00,
2013-01-31 16:14:00,47.6,15.3,28.76,ESE,113,2.2,2.9,27,0.00,,,0.25,WSDL version 420,2013-01-31 21:14:00,
2013-01-31 16:20:00,48.1,15.7,28.76,West,281,3.0,8.5,27,0.00,,,0.25,WSDL version 420,2013-01-31 21:20:00,
2013-01-31 16:22:00,48.1,15.7,28.76,NNE,15,2.0,8.5,27,0.00,,,0.25,WSDL version 420,2013-01-31 21:22:00,
2013-01-31 16:26:00,48.1,15.7,28.79,NNE,23,3.8,5.6,27,0.00,,,0.25,WSDL version 420,2013-01-31 21:26:00,
2013-01-31 16:28:00,48.0,15.6,28.79,North,353,3.9,6.0,27,0.00,,,0.25,WSDL version 420,2013-01-31 21:28:00,
2013-01-31 16:34:00,48.1,15.7,28.79,NNW,338,0.6,6.0,27,0.00,,,0.25,WSDL version 420,2013-01-31 21:34:00,
2013-01-31 16:36:00,48.4,16.0,28.79,North,360,1.2,6.0,27,0.00,,,0.25,WSDL version 420,2013-01-31 21:36:00,
2013-01-31 16:40:00,48.6,16.1,28.79,North,360,2.0,4.3,27,0.00,,,0.25,WSDL version 420,2013-01-31 21:40:00,
2013-01-31 16:42:00,48.6,16.2,28.79,South,180,1.6,4.3,27,0.00,,,0.25,WSDL version 420,2013-01-31 21:42:00,
2013-01-31 16:46:00,48.7,16.2,28.79,North,360,2.2,4.3,27,0.00,,,0.25,WSDL version 420,2013-01-31 21:46:00,
2013-01-31 16:48:00,48.7,16.2,28.79,NNE,15,1.6,2.9,27,0.00,,,0.25,WSDL version 420,2013-01-31 21:48:00,
2013-01-31 16:52:00,48.4,16.0,28.79,NW,321,1.1,2.9,27,0.00,,,0.25,WSDL version 420,2013-01-31 21:52:00,
2013-01-31 16:54:00,48.2,15.8,28.79,SW,225,0.0,2.9,27,0.00,,,0.25,WSDL version 420,2013-01-31 21:54:00,
2013-01-31 16:58:00,47.9,15.5,28.79,NNE,23,2.5,3.8,27,0.00,,,0.25,WSDL version 420,2013-01-31 21:58:00,
2013-01-31 17:00:00,47.6,15.3,28.79,South,169,1.5,3.8,27,0.00,,,0.25,WSDL version 420,2013-01-31 22:00:00,
2013-01-31 17:04:00,47.1,14.9,28.79,West,270,0.7,3.8,27,0.00,,,0.25,WSDL version 420,2013-01-31 22:04:00,
2013-01-31 17:08:00,46.9,14.7,28.79,NW,315,1.6,3.4,27,0.00,,,0.25,WSDL version 420,2013-01-31 22:08:00,
2013-01-31 17:12:00,46.7,14.5,28.76,NE,39,1.2,2.5,27,0.00,,,0.25,WSDL version 420,2013-01-31 22:12:00,
2013-01-31 17:14:00,46.6,14.4,28.76,NE,45,0.9,2.5,27,0.00,,,0.25,WSDL version 420,2013-01-31 22:14:00,
2013-01-31 17:18:00,46.8,14.5,28.76,North,360,1.0,2.5,27,0.00,,,0.25,WSDL version 420,2013-01-31 22:18:00,
2013-01-31 17:20:00,46.7,14.5,28.76,NE,45,1.5,2.5,27,0.00,,,0.25,WSDL version 420,2013-01-31 22:20:00,
2013-01-31 17:26:00,46.1,14.7,28.76,North,360,1.8,3.4,28,0.00,,,0.25,WSDL version 420,2013-01-31 22:26:00,
2013-01-31 17:30:00,45.6,14.4,28.76,North,11,3.6,4.3,28,0.00,,,0.25,WSDL version 420,2013-01-31 22:30:00,
2013-01-31 17:32:00,45.3,14.1,28.76,North,360,3.6,4.3,28,0.00,,,0.25,WSDL version 420,2013-01-31 22:32:00,
2013-01-31 17:38:00,44.7,13.6,28.76,North,360,2.7,3.8,28,0.00,,,0.25,WSDL version 420,2013-01-31 22:38:00,
2013-01-31 17:40:00,44.6,13.5,28.76,North,360,1.6,3.8,28,0.00,,,0.25,WSDL version 420,2013-01-31 22:40:00,
2013-01-31 17:44:00,44.3,13.2,28.76,North,360,2.9,3.4,28,0.00,,,0.25,WSDL version 420,2013-01-31 22:44:00,
2013-01-31 17:46:00,44.2,13.2,28.76,North,-999,-999.0,-999.0,28,0.00,,,0.25,WSDL version 420,2013-01-31 22:46:00,
2013-01-31 17:48:00,44.0,13.0,28.76,North,-999,-999.0,-999.0,28,0.00,,,0.25,WSDL version 420,2013-01-31 22:48:00,
2013-01-31 17:52:00,43.9,12.9,28.76,North,360,2.0,2.9,28,0.00,,,0.25,WSDL version 420,2013-01-31 22:52:00,
2013-01-31 17:56:00,43.7,12.8,28.76,North,349,0.0,1.6,28,0.00,,,0.25,WSDL version 420,2013-01-31 22:56:00,
2013-01-31 18:00:00,43.5,12.6,28.76,West,263,0.0,1.6,28,0.00,,,0.25,WSDL version 420,2013-01-31 23:00:00,
2013-01-31 18:04:00,43.5,12.5,28.76,West,270,0.7,2.2,28,0.00,,,0.25,WSDL version 420,2013-01-31 23:04:00,
2013-01-31 18:08:00,43.3,12.8,28.76,SE,135,0.0,2.2,29,0.00,,,0.25,WSDL version 420,2013-01-31 23:08:00,
2013-01-31 18:10:00,43.1,13.0,28.76,SSE,158,0.0,2.2,29,0.00,,,0.25,WSDL version 420,2013-01-31 23:10:00,
2013-01-31 18:16:00,42.7,12.6,28.76,SSW,203,0.0,0.0,29,0.00,,,0.25,WSDL version 420,2013-01-31 23:16:00,
2013-01-31 18:18:00,42.5,12.5,28.76,NW,315,0.0,0.0,29,0.00,,,0.25,WSDL version 420,2013-01-31 23:18:00,
2013-01-31 18:30:00,41.5,12.4,28.76,West,270,0.0,0.0,30,0.00,,,0.25,WSDL version 420,2013-01-31 23:30:00,
2013-01-31 18:32:00,41.4,12.3,28.76,ESE,113,0.0,0.0,30,0.00,,,0.25,WSDL version 420,2013-01-31 23:32:00,
2013-01-31 18:36:00,41.2,12.1,28.76,SW,236,0.0,0.0,30,0.00,,,0.25,WSDL version 420,2013-01-31 23:36:00,
2013-01-31 18:40:00,40.9,12.2,28.76,NW,315,0.0,0.0,31,0.00,,,0.25,WSDL version 420,2013-01-31 23:40:00,
2013-01-31 18:42:00,40.6,12.6,28.76,NW,315,0.0,0.0,32,0.00,,,0.25,WSDL version 420,2013-01-31 23:42:00,
2013-01-31 18:46:00,40.4,13.2,28.76,South,180,0.0,0.0,33,0.00,,,0.25,WSDL version 420,2013-01-31 23:46:00,
2013-01-31 18:48:00,40.3,13.6,28.76,South,180,0.0,0.0,34,0.00,,,0.25,WSDL version 420,2013-01-31 23:48:00,
2013-01-31 18:52:00,40.1,13.8,28.76,South,180,0.4,1.6,35,0.00,,,0.25,WSDL version 420,2013-01-31 23:52:00,
2013-01-31 18:54:00,40.0,14.0,28.76,SSW,203,0.0,1.6,35,0.00,,,0.25,WSDL version 420,2013-01-31 23:54:00,
2013-01-31 19:00:00,39.7,14.0,28.76,SSW,203,0.0,0.0,34,0.00,,,0.25,WSDL version 420,2013-02-01 00:00:00,
2013-01-31 19:06:00,39.5,14.7,28.76,South,180,2.5,3.1,37,0.00,,,0.25,WSDL version 420,2013-02-01 00:06:00,
2013-01-31 19:08:00,39.4,15.4,28.76,South,180,0.9,3.1,39,0.00,,,0.25,WSDL version 420,2013-02-01 00:08:00,
2013-01-31 19:12:00,39.1,16.3,28.76,South,180,0.0,3.1,39,0.00,,,0.25,WSDL version 420,2013-02-01 00:12:00,
2013-01-31 19:16:00,38.9,16.2,28.76,SSW,203,2.0,2.2,40,0.00,,,0.25,WSDL version 420,2013-02-01 00:16:00,
2013-01-31 19:18:00,38.9,16.3,28.76,SSW,203,1.7,2.2,40,0.00,,,0.25,WSDL version 420,2013-02-01 00:18:00,
2013-01-31 19:20:00,38.8,16.5,28.76,SSW,203,0.3,2.2,40,0.00,,,0.25,WSDL version 420,2013-02-01 00:20:00,
2013-01-31 19:22:00,38.6,16.4,28.76,South,180,0.0,2.2,40,0.00,,,0.25,WSDL version 420,2013-02-01 00:22:00,
2013-01-31 19:28:00,38.4,16.2,28.76,South,180,0.0,2.2,40,0.00,,,0.25,WSDL version 420,2013-02-01 00:28:00,
2013-01-31 19:34:00,38.1,16.1,-100.00,North,-999,-999.0,-999.0,41,0.00,,,0.25,WSDL version 420,2013-02-01 00:34:00,